Location: Wildcat Hills Observatory
(41.6350°N, 103.6812°W)
Time: 17:28:41
(UTC-06:00)

Cosmos 1634 Rocket - Visible Passes

Search period start: 19 April 2018 00:00
Search period end: 29 April 2018 00:00
Orbit: 960 x 992 km, 82.9° (Epoch: 19 April)

Date Brightness Start Highest point End Pass type
(mag) Time Alt. Az. Time Alt. Az. Time Alt. Az.
19 Apr 6.1 01:52:58 15° E 01:54:17 16° E 01:57:50 10° NE visible
19 Apr 3.9 03:37:39 58° SW 03:38:52 75° W 03:45:08 10° N visible
19 Apr 5.9 05:23:44 10° WNW 05:25:24 11° WNW 05:27:04 10° NW visible
20 Apr 5.3 02:18:31 28° E 02:19:24 29° E 02:24:39 10° NNE visible
20 Apr 4.4 04:03:12 37° WSW 04:04:33 42° WNW 04:10:27 10° N visible
21 Apr 4.4 02:44:03 51° ESE 02:44:41 53° E 02:50:44 10° NNE visible
21 Apr 5.2 04:28:43 21° W 04:30:25 24° WNW 04:35:22 10° NNW visible
22 Apr 6.2 01:24:53 13° E 01:25:43 13° E 01:28:32 10° NE visible
22 Apr 3.8 03:09:33 75° SSW 03:10:08 86° W 03:16:27 10° N visible
22 Apr 5.8 04:54:14 11° W 04:56:30 13° WNW 04:59:19 10° NW visible
23 Apr 5.5 01:50:22 25° E 01:50:47 25° E 01:55:44 10° NNE visible
23 Apr 4.2 03:35:03 46° W 03:35:47 48° WNW 03:41:50 10° N visible
24 Apr 4.6 02:15:51 46° E 02:16:02 46° E 02:21:57 10° NNE visible
24 Apr 5.0 04:00:31 26° W 04:01:36 27° WNW 04:06:52 10° NNW visible
25 Apr 6.3 00:56:38 11° E 00:57:09 11° ENE 00:58:54 10° ENE visible
25 Apr 3.9 02:41:19 82° ESE 02:41:26 83° E 02:47:44 10° N visible
25 Apr 5.7 04:25:59 14° W 04:27:39 15° WNW 04:31:12 10° NNW visible
26 Apr 5.7 01:22:05 22° E 01:22:11 22° E 01:26:46 10° NE visible
26 Apr 4.1 03:06:46 56° W 03:07:02 56° WNW 03:13:13 10° N visible
27 Apr 4.9 01:47:32 39° E 01:47:32 39° E 01:53:08 10° NNE visible
27 Apr 4.9 03:32:12 31° W 03:32:49 31° WNW 03:38:21 10° NNW visible
28 Apr 4.1 02:12:57 71° ENE 02:12:57 71° ENE 02:19:00 10° NNE visible
28 Apr 5.6 03:57:37 17° W 03:58:47 18° WNW 04:02:56 10° NNW visible
